Location: Lawrence Hall of Science
(37.8785°N, 122.2415°W)
Time: 12:13:45
(UTC-07:00)

Cosmos 2151 - Visible Passes

Search period start: 03 September 2015 00:00
Search period end: 13 September 2015 00:00
Orbit: 584 x 603 km, 82.5° (Epoch: 02 September)

Date Brightness Start Highest point End Pass type
(mag) Time Alt. Az. Time Alt. Az. Time Alt. Az.
09 Sep 5.8 22:16:58 10° N 22:17:03 10° N 22:17:03 10° N visible
10 Sep 5.8 22:26:10 10° N 22:26:29 12° N 22:26:29 12° N visible
11 Sep 5.9 22:35:32 10° N 22:35:56 12° N 22:35:56 12° N visible
12 Sep 6.0 22:45:03 10° NNW 22:45:23 12° NNW 22:45:23 12° NNW visible
